Location: Unspecified
(47.5840°N, 122.3000°W)
Time: 15:36:09
(UTC+00:00)

USA 59 Rocket - Pass Details

Date: 21 March 2026
Orbit: 368 x 1667 km, 63.3° (Epoch: 15 April)

Event Time Altitude Azimuth Distance (km) Brightness Sun altitude
Rises 05:16:37 0° 254° (WSW) 2,544 3.7 -28.3°
Reaches altitude 10° 05:19:18 10° 272° (W) 1,527 2.7 -28.7°
Enters shadow 05:20:34 16° 291° (WNW) 1,160 2.2 -28.8°
